Vertical_Velocity
3 2 -1 -1 -1 -0 0 0 -3 -8 -3 -1 -1 1 0 1 -2 -3 -1 0 3 -4 1 0 -4 -2 3 -1 6 1 -2 5 0 3 3 4 5 2
-1 -1 -1 -0 -0 -1 -2 -3 -3 -3 -4 -3 3 -3 -4 -4 -3 -0 1 0 -2 -0 4 -3 -9 -2 -5 -3 -7 -6 -3 3 2 0 0 6 4 3
0 1 2 1 1 0 -1 -1 0 0 -1 3 -5 -5 -4 -5 -4 -5 -3 -3 -5 -6 -4 -4 0 -1 2 -6 -8 10 3 1 1 3 2 6 4 6
-2 -2 -1 -0 -0 1 1 1 1 -1 -2 -1 0 -0 -3 -1 -1 -2 -2 -2 -2 -4 -2 0 1 -2 -1 2 8 1 18 -4 -4 -6 -3 4 8 0
-1 -1 -1 -2 -2 -1 -1 -1 -1 -1 -1 -4 -2 -1 -0 -5 1 0 0 -1 -2 -1 -1 -1 -1 0 -2 -1 -1 23 -5 7 -3 1 -0 -1 -3 2
0 -3 -1 -2 -3 -4 -2 -1 1 1 -0 -1 -1 0 -1 2 -4 -6 2 -3 1 -3 -0 -3 -3 -5 -4 0 -4 -2 17 3 15 3 1 -9 2 17
-4 1 -1 -1 -1 -1 -2 -0 -2 -1 -1 -2 -3 -2 -1 -0 -3 -1 -5 -3 1 2 -3 3 0 2 -1 -3 2 -8 -2 10 11 8 5 8 8 -7
-4 -3 -1 -1 -1 -1 -3 -4 -4 -5 -2 -3 -1 -3 -0 -5 -3 -6 -6 -4 -8 8 -7 9 -6 3 -0 -0 -0 -2 -10 1 2 5 7 18 8 32
-2 -3 -1 -3 -3 -1 -1 -1 -1 -1 -2 -5 -3 -2 -3 -3 -3 -8 -5 -6 -5 5 -8 -10 -2 -2 -2 -2 -8 -8 -0 -4 4 -2 -3 7 11 1
1 -1 -0 1 -2 -2 -1 -1 0 -0 -1 -1 -3 -1 -3 -2 -5 -8 -7 -9 -3 -1 -5 -17 -3 -2 1 2 -3 -2 -2 -1 -11 4 4 1 0 2
1 -1 -3 -1 -1 1 -4 -2 3 6 1 0 -1 -1 -2 -1 -3 -7 -2 -7 -6 -3 11 -11 -5 -6 -1 5 3 -7 -0 -3 -3 -7 -1 4 1 -1
2 -0 -4 -4 -1 -0 -4 -3 -0 1 -1 2 5 4 1 -1 -2 -4 -5 -8 -6 -12 13 -13 -4 -6 -15 5 6 3 -4 -3 2 -3 -8 -0 3 7
2 3 0 -0 0 -0 -2 -3 -2 -2 1 -1 0 0 1 1 -0 -0 -1 -7 -7 -6 1 -8 -9 -4 -7 -24 2 4 1 3 -1 -0 -3 -6 -4 5
-0 -0 -1 -1 1 0 -1 -1 -2 -2 -1 -0 -0 1 1 3 3 1 3 1 -2 -10 1 0 -13 -6 -3 -10 -10 5 -1 0 0 0 -2 1 -1 -6
-0 -1 -2 -4 -3 -1 -2 -2 -0 -0 -1 -1 -1 1 -1 1 2 4 2 1 -1 1 -3 -0 -6 -2 -3 -8 -16 2 -10 4 -1 1 1 -1 -1 -3
-1 -0 -1 -1 -2 -4 -2 -1 -2 -2 -2 -1 -1 -0 -1 -1 -0 -1 -0 0 -4 8 6 -2 -3 -5 -3 -0 -10 -4 4 -13 6 -1 -5 -1 0 -1
-1 -1 -0 -2 0 -0 -1 -3 -2 -1 -1 -3 -1 -1 -1 -4 -2 -2 -0 -1 -5 -2 5 5 -2 -3 -3 -6 -9 -0 -1 -2 -0 3 -4 1 2 1
0 -0 1 -2 -1 -1 -1 1 -0 -0 -2 -0 1 -2 -3 -3 -1 3 -0 -2 -2 2 0 1 -0 -1 -1 9 -8 -7 0 -6 2 2 -1 -2 5 2
1 0 -0 -1 -1 -1 -1 -1 -0 1 -1 -0 -1 -1 -3 -1 -2 2 -0 -2 0 -0 2 1 0 -3 -5 -7 4 -1 -8 4 -3 1 2 -2 3 3
-1 -1 -0 -1 -1 -1 -0 -1 -0 -0 1 0 -0 -1 -0 -2 0 1 1 -2 -0 2 1 1 -0 -2 -3 -7 -11 14 2 -5 -4 1 1 -1 -1 5
-0 -1 -2 -1 -1 -1 -1 0 -2 1 -0 -2 -3 -3 1 -2 -1 -1 -0 -1 -3 -1 -1 1 1 -3 -4 -5 -8 2 9 -4 -5 -2 3 -2 0 2
0 0 -0 -1 -1 -1 -0 -0 0 1 -0 -0 -0 0 0 -1 -0 -1 0 -0 -0 -2 -3 -3 -0 -3 -0 -3 -2 -3 4 6 -1 -3 -2 -1 4 2
-0 -0 -1 -1 -1 -1 0 -0 -0 1 -2 -0 0 -1 -2 -1 -0 0 -1 -2 -3 -2 -3 -1 -0 -1 1 -1 -3 1 0 3 1 -2 -3 -4 2 2
Height
3035 3033 3031 3028 3025 3022 3018 3014 3010 3006 3004 3010 3008 3009 3005 3002 2999 2998 2995 2993 2991 2989 2989 2989 2987 2988 2989 2991 2993 2997 3001 3005 3010 3015 3019 3023 3028 3032
3027 3024 3021 3019 3016 3013 3010 3006 3001 2997 2994 3003 2999 2994 2992 2990 2989 2986 2984 2982 2980 2978 2977 2975 2973 2975 2975 2975 2978 2981 2985 2990 2994 2999 3005 3009 3013 3018
3019 3016 3013 3010 3008 3005 3003 3000 2997 2991 2985 2987 2987 2984 2981 2978 2977 2975 2972 2971 2969 2967 2966 2963 2961 2961 2961 2961 2962 2964 2969 2972 2977 2982 2989 2994 2997 3003
3011 3007 3004 3001 2998 2995 2992 2988 2985 2981 2977 2974 2975 2974 2972 2967 2965 2964 2962 2959 2957 2955 2953 2952 2950 2948 2948 2948 2946 2950 2951 2953 2958 2965 2971 2978 2984 2988
3006 3002 2998 2995 2991 2988 2985 2981 2978 2975 2971 2967 2966 2964 2963 2959 2957 2954 2953 2951 2948 2945 2941 2939 2938 2936 2935 2935 2934 2933 2936 2936 2941 2947 2953 2961 2967 2965
2998 2994 2990 2987 2984 2981 2979 2976 2973 2969 2966 2962 2958 2955 2954 2952 2948 2944 2944 2940 2940 2936 2933 2929 2926 2924 2924 2924 2925 2924 2923 2923 2923 2929 2937 2944 2949 2955
2991 2987 2983 2979 2977 2974 2972 2970 2966 2963 2959 2955 2952 2948 2945 2943 2939 2936 2931 2929 2927 2925 2922 2920 2917 2914 2913 2912 2911 2912 2912 2909 2912 2915 2921 2926 2932 2938
2984 2980 2976 2973 2971 2968 2965 2961 2959 2955 2951 2947 2943 2940 2936 2932 2928 2924 2920 2916 2913 2914 2907 2910 2904 2905 2903 2900 2899 2899 2901 2899 2900 2903 2906 2910 2917 2923
2977 2973 2969 2966 2963 2960 2957 2953 2950 2946 2940 2936 2933 2930 2925 2921 2916 2913 2909 2905 2902 2901 2894 2891 2892 2891 2891 2890 2887 2887 2888 2888 2890 2891 2894 2896 2902 2910
2969 2965 2962 2959 2956 2952 2948 2945 2941 2938 2933 2928 2923 2920 2915 2911 2906 2901 2896 2893 2891 2889 2884 2876 2879 2875 2879 2878 2876 2875 2875 2876 2877 2881 2881 2885 2891 2896
2961 2956 2954 2951 2948 2944 2939 2935 2931 2928 2923 2919 2914 2910 2905 2899 2894 2889 2886 2880 2877 2878 2876 2864 2866 2860 2863 2866 2864 2864 2864 2865 2867 2868 2872 2875 2879 2886
2954 2950 2946 2942 2939 2935 2930 2925 2920 2917 2912 2908 2904 2900 2895 2890 2885 2879 2874 2869 2865 2862 2865 2855 2853 2849 2844 2852 2853 2852 2852 2853 2856 2859 2861 2865 2870 2874
2946 2944 2940 2936 2931 2927 2922 2916 2910 2905 2900 2896 2892 2888 2883 2878 2874 2870 2865 2860 2856 2852 2852 2844 2842 2841 2835 2832 2839 2841 2840 2842 2844 2847 2852 2856 2860 2865
2937 2935 2932 2927 2923 2918 2912 2907 2901 2896 2890 2885 2881 2876 2872 2868 2864 2860 2856 2851 2846 2844 2842 2836 2832 2830 2826 2825 2825 2830 2830 2831 2832 2836 2840 2845 2850 2854
2929 2926 2922 2916 2912 2908 2902 2897 2891 2886 2880 2875 2870 2866 2861 2856 2853 2849 2846 2841 2838 2834 2830 2827 2823 2821 2818 2815 2814 2819 2818 2821 2821 2825 2829 2834 2839 2844
2922 2919 2914 2909 2904 2898 2892 2887 2882 2876 2871 2866 2861 2856 2850 2845 2841 2838 2835 2831 2828 2826 2821 2817 2815 2811 2810 2809 2807 2810 2809 2808 2812 2815 2817 2823 2829 2834
2914 2911 2906 2901 2897 2893 2887 2881 2876 2870 2864 2858 2852 2846 2841 2836 2832 2827 2824 2820 2816 2814 2812 2810 2807 2804 2803 2801 2800 2801 2798 2801 2801 2805 2807 2813 2819 2825
2907 2902 2898 2893 2889 2883 2877 2872 2867 2861 2855 2849 2843 2838 2833 2828 2823 2819 2815 2812 2808 2805 2803 2801 2799 2798 2797 2796 2793 2792 2791 2791 2793 2794 2798 2803 2810 2815
2899 2895 2890 2886 2881 2875 2869 2863 2858 2853 2847 2841 2835 2830 2825 2820 2815 2812 2808 2804 2800 2797 2796 2794 2792 2791 2788 2787 2787 2785 2783 2784 2784 2786 2790 2795 2801 2807
2891 2887 2883 2878 2873 2867 2861 2856 2851 2846 2840 2834 2828 2823 2818 2813 2809 2805 2801 2796 2793 2791 2789 2789 2787 2785 2782 2779 2778 2780 2777 2775 2777 2779 2783 2786 2792 2799
2884 2880 2875 2871 2866 2860 2854 2849 2844 2839 2834 2828 2821 2816 2811 2806 2803 2799 2795 2791 2787 2785 2784 2783 2782 2780 2776 2774 2772 2772 2773 2770 2770 2773 2776 2780 2785 2791
2876 2873 2870 2865 2859 2853 2848 2843 2839 2834 2828 2822 2816 2810 2805 2801 2797 2793 2789 2786 2783 2780 2779 2778 2776 2774 2772 2769 2766 2765 2766 2766 2765 2767 2771 2774 2780 2783
2870 2867 2863 2859 2853 2847 2842 2838 2833 2828 2823 2817 2811 2806 2801 2797 2793 2789 2785 2782 2779 2777 2775 2773 2772 2769 2766 2763 2760 2760 2760 2761 2760 2762 2766 2769 2772 2776